Location: Beau Repaire
(50.6144°N, 4.0551°E)
Time: 07:23:22
(UTC+00:00)

CZ-2C R/B - Pass Details

Date: 15 May 2026
Orbit: 703 x 901 km, 98.2° (Epoch: 5 June)

Event Time Altitude Azimuth Distance (km) Brightness Sun altitude
Rises 22:59:27 0° 19° (NNE) 3,501 7.5 -19.8°
Reaches altitude 10° 23:02:00 10° 26° (NNE) 2,572 6.5 -19.8°
Maximum altitude 23:07:26 41° 96° (E) 1,288 4.0 -20.0°
Enters shadow 23:09:27 31° 139° (SE) 1,531 4.1 -20.0°
